TimeCDT,TemperatureF,Dew PointF,Humidity,Sea Level PressureIn,VisibilityMPH,Wind Direction,Wind SpeedMPH,Gust SpeedMPH,PrecipitationIn,Events,Conditions,WindDirDegrees,DateUTC
12:30 AM,66,55,58,29.65,3,East,8.9,,,,Scattered Clouds,90,2012-10-21 05:30:00
12:45 AM,59.0,44.6,59,30.24,7.0,ENE,5.8,-,N/A,,Clear,60,2012-10-21 05:45:00
1:45 AM,59.0,44.6,59,30.24,7.0,ENE,4.6,-,N/A,,Clear,70,2012-10-21 06:45:00
2:45 AM,59.0,44.6,59,30.24,-9999.0,Calm,Calm,-,N/A,,Clear,0,2012-10-21 07:45:00
3:40 AM,62,54,67,29.73,3,North,2.2,,,,Partly Cloudy,0,2012-10-21 08:40:00
3:45 AM,55.4,42.8,63,30.24,7.0,Calm,Calm,-,N/A,,Clear,0,2012-10-21 08:45:00
4:45 AM,55.4,44.6,67,30.24,7.0,Calm,Calm,-,N/A,,Clear,0,2012-10-21 09:45:00
5:45 AM,51.8,42.8,71,30.24,7.0,SW,4.6,-,N/A,,Clear,230,2012-10-21 10:45:00
6:40 AM,60,53,69,29.78,6,South,4.5,,,,Partly Cloudy,180,2012-10-21 11:40:00
6:45 AM,53.6,44.6,72,30.24,7.0,SW,4.6,-,N/A,,Clear,230,2012-10-21 11:45:00
7:45 AM,51.8,44.6,76,30.25,7.0,Calm,Calm,-,N/A,,Scattered Clouds,0,2012-10-21 12:45:00
8:45 AM,57.2,44.6,63,30.25,7.0,Calm,Calm,-,N/A,,Scattered Clouds,0,2012-10-21 13:45:00
9:40 AM,66,54,55,29.85,16,ENE,8.9,,,,Scattered Clouds,70,2012-10-21 14:40:00
9:45 AM,62.6,42.8,48,30.27,7.0,SE,5.8,-,N/A,,Scattered Clouds,130,2012-10-21 14:45:00
10:45 AM,68.0,42.8,40,30.27,7.0,ESE,8.1,-,N/A,,Mostly Cloudy,120,2012-10-21 15:45:00
11:45 AM,73.4,42.8,33,30.27,7.0,East,6.9,-,N/A,,Mostly Cloudy,90,2012-10-21 16:45:00
12:45 PM,75.2,42.8,31,30.25,7.0,SE,9.2,-,N/A,,Mostly Cloudy,130,2012-10-21 17:45:00
1:45 PM,78.8,44.6,30,30.23,7.0,NNE,15.0,-,N/A,,Mostly Cloudy,30,2012-10-21 18:45:00
2:45 PM,77.0,44.6,32,30.17,7.0,NE,15.0,-,N/A,,Mostly Cloudy,50,2012-10-21 19:45:00
3:45 PM,80.6,44.6,28,30.15,10.0,ENE,11.5,-,N/A,,Mostly Cloudy,60,2012-10-21 20:45:00
3:55 PM,84,43,14,29.63,16,ENE,6.7,,,,Scattered Clouds,60,2012-10-21 20:55:00
4:45 PM,80.6,44.6,28,30.13,10.0,NE,15.0,-,N/A,,Mostly Cloudy,40,2012-10-21 21:45:00
5:45 PM,78.8,44.6,30,30.13,10.0,NE,13.8,-,N/A,,Scattered Clouds,50,2012-10-21 22:45:00
6:50 PM,73.4,42.8,33,30.11,8.0,NE,13.8,-,N/A,,Scattered Clouds,50,2012-10-21 23:50:00
6:55 PM,78,42,17,29.59,16,NE,8.9,,,,,50,2012-10-21 23:55:00
7:45 PM,69.8,44.6,40,30.15,7.0,NE,11.5,-,N/A,,Scattered Clouds,50,2012-10-22 00:45:00
8:48 PM,66.2,46.4,49,30.18,7.0,NE,11.5,-,N/A,,Clear,50,2012-10-22 01:48:00
9:45 PM,60.8,44.6,55,30.20,7.0,East,8.1,-,N/A,,Clear,100,2012-10-22 02:45:00
9:55 PM,66,47,40,29.65,12,SE,11.2,,,,,140,2012-10-22 02:55:00
10:45 PM,59.0,44.6,59,30.25,7.0,East,9.2,-,N/A,,Clear,90,2012-10-22 03:45:00
11:45 PM,55.4,44.6,67,30.26,7.0,ESE,6.9,-,N/A,,Clear,120,2012-10-22 04:45:00